Tracking 27111 objects as of 29-Mar-2023
HD Live streaming from Space Station
objects crossing your sky now

VIGORIDE 5

Track VIGORIDE 5 now!
10-day predictions


NORAD ID: 55056
Int'l Code: 2023-001AZ
Perigee: 521.8 km
Apogee: 538.1 km
Inclination: 97.5 °
Period: 95.1 minutes
Semi major axis: 6900 km
RCS: Unknown
Launch date: January 3, 2023
Source: United States (US)
Launch site: AIR FORCE EASTERN TEST RANGE (AFETR)
Your satellite tracking list
Your tracking list is empty




NASA's NSSDC Master Catalog

Two Line Element Set (TLE):
1 55056U 23001AZ  23087.16329329  .00007954  00000-0  43604-3 0  9997
2 55056  97.4877 147.9337 0011871 294.1641  65.8350 15.14395470 12799
Source of the keplerian elements: AFSPC